Wind_Speed
2 4 6 4 5 3 3 6 10 8 5 5 9 10 7 2 1 3 5 7 8 9 11 14 16 17 18 18 18 17 14 5 1 3 5 5 6 6 7 12 17 19 18 18
3 7 1 1 3 6 6 8 11 10 6 4 8 14 9 5 1 2 3 5 7 9 11 16 18 19 19 19 19 17 16 12 6 2 3 3 6 6 7 10 12 15 16 17
6 3 5 4 4 7 9 12 8 8 5 8 9 14 9 6 5 3 2 3 6 8 11 13 18 20 20 21 21 19 17 15 11 4 2 5 6 8 8 9 11 14 15 16
6 2 5 6 8 9 8 9 10 7 4 5 2 6 6 10 9 5 3 3 5 7 9 12 16 19 21 20 18 19 19 17 15 12 7 6 2 3 4 10 11 13 14 16
1 5 5 6 5 11 2 3 3 4 7 7 8 6 3 6 11 10 7 4 4 6 8 10 13 15 17 20 20 19 19 20 20 16 14 10 8 6 5 7 11 12 13 13
7 1 3 3 2 10 7 4 3 2 2 6 10 11 11 6 7 11 8 5 3 4 6 9 11 13 17 19 21 21 21 22 21 20 17 14 10 7 5 6 9 12 12 12
3 5 2 4 4 3 8 6 3 4 4 7 2 7 15 1 3 12 14 8 5 3 5 7 11 14 16 19 19 19 21 23 22 21 19 16 12 8 4 1 4 8 12 15
3 4 6 6 9 5 14 8 5 6 4 2 3 7 1 3 4 11 10 7 5 3 3 5 8 9 12 14 15 16 17 18 20 19 19 17 16 11 7 3 3 6 10 10
4 4 1 0 1 2 4 9 8 4 1 4 8 8 4 6 8 9 8 7 5 3 3 4 6 8 10 12 14 15 15 15 17 16 17 18 17 15 12 8 5 5 9 10
0 5 1 1 1 2 4 3 2 3 6 10 6 6 8 8 10 10 9 8 6 3 2 3 5 7 8 9 10 11 13 14 15 16 17 16 16 15 14 11 8 6 7 8
1 2 1 1 6 6 4 5 5 3 4 8 12 7 1 1 13 15 14 11 8 4 1 2 5 7 7 8 8 10 12 13 14 16 16 16 16 16 15 14 12 10 8 8
2 1 5 6 2 2 4 5 9 8 9 4 5 14 2 4 8 14 14 10 7 4 2 4 8 11 8 7 7 7 8 9 11 12 14 15 15 16 16 16 15 14 12 9
6 3 4 4 2 2 6 5 3 1 1 15 11 13 2 1 4 11 15 10 7 4 5 7 10 11 9 8 9 7 7 6 8 10 11 12 14 15 15 16 16 15 15 13
5 5 7 12 11 0 5 6 7 4 5 12 15 17 3 6 7 10 12 10 9 7 8 7 8 9 10 10 12 11 10 8 7 7 9 11 12 14 14 16 16 16 15 15
3 6 5 6 10 8 12 13 13 11 10 10 18 12 6 9 9 8 10 9 7 8 6 8 9 12 12 12 14 16 17 13 10 9 9 10 11 13 14 15 16 16 15 15
2 4 2 5 8 8 12 18 16 19 19 15 22 26 15 14 14 11 9 7 7 6 7 8 9 12 14 17 19 18 17 20 15 14 12 11 11 11 13 14 15 16 17 16
5 4 3 8 4 7 10 14 21 17 15 16 15 20 9 10 10 9 9 6 7 8 8 9 10 14 17 19 20 20 18 18 20 19 15 12 12 12 12 14 16 17 17 17
6 5 3 5 2 12 5 3 5 15 18 15 12 9 9 8 9 5 3 7 7 8 8 9 13 19 23 23 21 21 22 21 21 23 20 15 12 12 12 13 14 16 17 18
4 6 3 4 6 14 20 10 9 10 11 13 17 17 14 11 7 7 8 7 10 7 12 16 20 22 22 23 22 20 21 20 22 27 24 19 14 14 12 13 15 16 17 19
4 5 7 4 6 9 7 4 4 2 11 11 14 16 10 5 8 4 6 4 7 11 15 16 19 19 20 22 19 15 18 19 24 28 26 23 17 17 16 14 15 16 16 19
3 5 14 14 11 9 7 5 3 7 10 5 9 9 7 6 6 5 3 7 12 13 15 15 14 15 16 18 17 18 19 22 24 28 27 25 21 20 18 17 16 16 17 18
8 7 6 6 9 14 6 5 9 10 3 6 7 7 6 11 13 11 7 6 8 10 10 9 15 19 21 19 17 17 17 20 19 20 24 25 24 22 20 19 18 16 15 15
5 5 5 8 6 2 2 8 7 6 5 7 7 8 8 12 12 11 9 8 9 10 11 10 13 18 20 16 13 16 15 18 19 19 23 26 26 26 24 22 20 16 13 11
4 4 5 5 11 12 8 6 11 11 9 7 7 7 7 8 10 12 11 10 12 13 14 14 16 19 22 18 17 16 16 19 20 21 23 23 25 28 26 24 20 17 13 12
4 3 4 12 14 13 3 12 11 12 11 12 11 8 8 10 11 11 12 14 15 15 15 16 18 20 23 20 20 18 18 21 23 22 19 17 17 20 21 24 21 20 21 17
1 3 4 8 3 4 9 12 8 12 13 14 14 13 13 14 13 17 15 17 17 18 18 20 21 23 23 22 23 24 26 24 22 20 17 15 15 16 16 17 20 25 28 25
Wind_Direction
51 232 222 190 216 235 229 251 263 268 283 287 273 272 267 260 318 356 23 16 7 11 1 6 5 4 6 9 6 3 355 10 170 171 162 157 153 166 187 204 199 192 187 191
185 242 209 206 176 210 228 256 265 275 263 261 280 276 267 225 186 10 16 40 18 13 20 16 14 13 17 15 13 13 10 7 1 280 227 197 171 171 180 188 192 196 196 198
235 107 111 179 198 209 229 241 255 270 307 253 286 273 218 190 164 139 72 62 52 33 19 19 19 17 17 19 17 14 14 30 38 30 111 153 149 129 147 169 177 183 189 195
257 127 226 219 240 217 253 230 244 264 267 274 302 291 220 198 187 186 148 84 57 42 38 28 24 22 19 19 22 23 24 32 43 45 32 35 55 140 160 180 181 180 191 200
99 185 196 217 230 191 243 136 208 246 246 295 223 251 230 180 209 196 165 123 62 43 36 33 29 27 26 26 30 29 29 33 36 41 48 47 51 70 108 139 162 176 184 198
261 347 249 247 182 201 139 118 82 74 257 256 247 225 268 205 232 176 159 142 100 51 40 36 33 31 31 31 32 32 33 33 32 37 38 40 44 45 81 123 156 175 182 192
241 213 214 207 196 157 187 178 234 231 198 246 61 229 256 234 203 184 161 145 120 78 48 34 30 26 26 28 30 30 33 32 30 32 32 29 35 38 45 67 192 193 194 200
263 252 189 170 227 224 203 210 226 252 241 321 138 237 232 4 137 139 135 128 125 106 66 42 28 25 23 26 29 31 34 34 34 30 30 28 28 23 17 6 289 254 245 230
206 255 121 266 333 251 170 218 264 273 136 273 250 251 188 132 135 143 145 157 148 124 65 31 15 17 16 17 20 23 25 31 33 29 31 31 27 23 17 9 348 293 272 268
56 282 51 74 235 206 249 141 178 212 248 246 235 265 263 192 180 177 179 180 169 153 89 29 7 357 1 5 7 15 21 24 25 25 27 26 26 24 20 13 5 327 297 277
188 249 152 210 205 231 190 218 228 275 247 263 270 263 93 261 200 196 195 191 179 166 136 346 341 329 329 337 349 358 6 14 18 19 19 19 18 19 20 16 6 348 324 288
183 212 254 249 113 328 294 275 245 238 233 238 281 263 168 270 248 208 203 196 186 194 240 308 323 319 301 303 316 331 345 358 6 9 13 14 11 12 11 10 7 358 342 314
183 205 283 248 171 181 233 213 197 160 308 248 254 258 67 58 178 204 206 195 189 209 273 287 301 308 286 285 281 285 304 325 342 353 1 5 6 6 5 2 360 357 350 335
174 197 227 257 288 119 228 205 218 208 246 262 242 270 221 211 208 204 205 205 212 246 278 286 291 293 273 276 272 265 272 284 305 325 341 350 355 360 359 357 356 354 352 346
201 237 203 263 261 253 264 254 230 214 226 234 264 251 240 219 217 215 214 222 242 268 281 294 297 300 295 282 277 268 261 264 275 292 312 330 339 343 348 352 355 355 352 348
184 247 174 271 255 260 268 253 247 242 243 248 259 265 261 258 252 245 234 244 268 276 272 280 284 284 286 288 290 283 271 255 253 264 279 299 316 326 333 340 347 352 351 350
179 185 176 265 11 317 270 252 234 232 233 229 243 253 259 245 245 233 240 235 249 260 271 279 283 285 287 295 300 292 280 264 245 250 257 272 293 310 322 329 336 342 346 348
170 175 190 280 328 265 292 37 275 246 247 228 254 248 229 236 244 259 234 246 256 245 254 268 278 289 300 305 300 294 285 269 252 241 249 256 272 291 307 317 328 334 337 339
204 182 220 247 228 291 297 256 219 211 265 236 243 257 261 263 264 253 238 232 241 266 278 283 296 303 303 303 301 296 286 272 259 241 245 253 262 273 286 301 314 324 328 331
228 251 220 172 237 263 295 307 298 215 265 227 251 267 278 242 270 293 205 231 248 269 282 295 307 309 309 316 313 290 284 272 257 240 244 250 255 264 269 282 298 309 316 319
165 208 222 231 241 260 262 208 182 244 283 199 221 237 199 217 265 289 266 272 283 291 302 308 309 315 323 327 319 299 292 275 272 253 243 247 248 257 266 273 283 296 305 311
193 179 212 236 252 263 179 131 220 256 301 269 210 196 277 284 280 278 269 255 283 297 312 323 320 319 319 325 324 311 299 312 303 273 264 258 252 254 259 265 275 286 293 299
263 214 262 220 239 322 235 269 356 346 333 323 318 325 314 291 291 307 308 313 304 302 311 319 319 313 310 316 318 308 314 315 309 296 276 266 258 254 254 255 264 273 278 279
238 196 244 277 258 263 321 23 21 1 343 358 12 345 332 314 315 311 312 311 310 306 307 314 313 305 301 309 306 298 303 307 306 299 288 277 266 256 250 249 254 260 261 263
308 154 263 274 289 326 273 13 357 352 356 347 342 339 331 325 315 314 310 309 306 305 304 306 303 297 294 300 298 298 298 301 298 293 289 282 265 255 247 247 246 252 261 259
11 319 276 291 358 296 296 338 9 355 337 325 325 325 325 320 309 305 298 299 297 297 297 294 292 289 289 292 291 295 299 301 295 287 282 274 267 257 248 245 256 259 264 268
Height
852 845 837 834 839 843 841 841 838 836 837 839 827 826 826 835 835 835 833 833 833 831 830 826 822 818 813 807 803 799 798 796 797 798 800 800 801 803 804 806 808 810 813 817
849 839 844 850 849 847 844 840 836 835 839 840 827 821 819 832 837 839 837 835 835 832 829 827 823 820 815 811 807 803 800 798 798 799 799 800 802 803 804 806 807 811 813 815
842 843 849 849 850 847 842 838 837 839 838 835 835 813 818 832 837 840 841 839 837 834 831 829 826 823 818 813 809 806 803 799 797 798 799 800 801 802 804 806 807 810 811 814
848 850 850 847 844 844 839 835 839 841 841 831 837 814 808 816 829 837 839 839 838 837 834 832 829 825 823 819 814 811 807 803 801 800 800 800 801 802 803 804 806 808 811 813
838 845 847 846 839 842 835 841 840 840 838 841 829 829 789 823 823 829 835 840 841 840 838 835 833 830 827 822 817 814 811 807 804 802 802 802 802 802 802 804 805 808 810 812
845 851 846 838 842 842 846 845 847 848 846 842 817 819 786 803 806 820 835 839 843 843 841 838 835 832 828 824 821 817 815 812 809 806 806 806 805 805 804 804 805 807 808 810
845 842 842 843 839 845 843 840 841 843 854 828 839 833 791 810 817 818 829 837 841 844 842 840 837 834 831 828 825 822 819 816 814 812 811 811 809 809 808 807 807 808 808 809
837 826 840 840 834 832 838 837 834 832 826 811 842 826 794 827 826 827 834 839 841 842 842 841 840 837 835 832 830 828 825 822 820 819 816 814 812 811 810 809 809 809 809 809
844 839 844 845 844 841 843 843 833 848 891 851 803 802 827 833 835 836 837 838 838 840 841 841 841 839 836 834 832 829 828 826 823 822 820 818 816 814 811 810 810 809 810 809
853 846 847 847 847 847 843 841 846 849 838 829 805 820 789 830 834 836 836 834 836 839 840 840 840 839 837 835 834 831 829 827 825 823 821 819 817 816 814 812 810 809 809 809
858 857 844 848 842 835 847 842 845 840 836 821 810 790 821 820 823 829 829 830 833 837 839 839 839 839 838 837 836 834 831 828 826 824 822 821 819 817 815 813 811 809 808 808
860 863 854 841 854 859 855 844 837 835 826 833 834 800 831 827 825 823 827 830 834 836 837 838 837 836 836 835 834 834 832 831 828 827 824 821 820 818 816 814 811 810 807 806
862 867 855 840 854 857 851 847 853 866 855 829 828 798 830 829 826 824 826 830 834 836 837 836 836 835 834 833 832 832 831 830 828 827 825 823 821 819 818 815 812 809 807 805
861 867 854 833 828 854 852 850 851 857 845 826 819 809 824 825 826 827 827 828 831 833 834 835 834 833 832 831 830 829 828 828 827 826 825 824 822 820 818 815 812 809 806 804
865 866 878 867 862 862 855 851 848 857 842 841 814 826 827 826 827 827 825 826 830 831 831 831 830 830 829 828 826 826 825 825 825 824 823 822 821 819 817 814 812 809 806 803
875 862 878 874 861 864 865 849 850 845 843 844 827 819 818 819 820 824 826 828 827 829 829 829 828 826 824 822 820 820 820 820 820 819 819 819 818 818 816 814 811 809 806 802
871 870 878 854 876 871 857 832 831 831 829 831 835 811 818 820 818 822 823 825 827 826 826 825 824 822 819 817 817 815 813 813 814 815 815 815 815 815 814 812 810 807 805 802
868 869 869 859 882 858 819 832 830 823 818 823 822 823 819 820 816 820 823 822 823 825 824 821 819 817 815 813 812 810 809 808 808 808 809 810 810 811 810 810 809 807 804 802
864 860 863 864 866 835 822 814 827 825 808 815 815 810 811 814 818 818 819 820 820 818 817 816 815 813 811 809 807 804 803 803 802 801 803 805 806 806 806 806 805 804 802 799
870 865 857 878 859 842 809 821 825 821 815 805 804 805 807 813 810 808 816 816 815 815 814 812 810 809 808 805 802 799 797 796 794 795 798 799 800 800 800 801 801 801 799 797
866 862 856 844 841 829 819 820 825 829 807 803 805 805 807 807 807 810 813 812 811 810 809 808 807 805 805 802 799 795 793 790 789 791 791 792 793 793 795 795 796 796 795 794
842 852 852 843 839 832 816 828 826 803 802 802 803 804 807 806 805 807 809 810 809 808 806 805 803 802 801 800 797 793 789 788 786 786 786 787 788 789 789 790 791 791 791 790
844 829 826 832 818 817 821 815 821 820 816 811 812 811 812 810 808 808 809 808 808 807 806 805 804 801 798 797 795 792 788 785 783 781 780 780 782 783 784 784 785 786 786 787
841 842 835 835 814 819 819 825 829 828 826 824 822 821 820 817 814 810 808 808 807 807 806 805 803 800 796 795 792 790 787 784 780 777 775 774 774 775 777 779 779 780 780 781
832 841 832 824 819 826 821 833 835 833 831 829 827 825 822 819 815 814 810 809 807 806 805 804 801 797 792 790 787 785 783 781 776 773 770 770 769 769 770 771 773 772 772 774
841 840 835 822 845 845 837 837 838 837 835 831 828 824 823 821 817 815 811 809 806 803 801 798 795 791 786 783 780 778 777 775 772 768 766 765 765 765 765 765 765 764 764 765